Location: Laterina
(43.5167°N, 11.7167°E)
Time: 16:45:27
(UTC+00:00)

Cosmos 2034 Rocket - Pass Details

Date: 24 September 2020
Orbit: 957 x 1002 km, 82.9° (Epoch: 25 October)

Event Time Altitude Azimuth Distance (km) Brightness Sun altitude
Rises 18:01:04 0° 175° (S) 3,710 6.9 -10.7°
Reaches altitude 10° 18:03:37 10° 172° (S) 2,763 6.2 -11.2°
Maximum altitude 18:09:52 62° 93° (E) 1,115 4.0 -12.3°
Drops below altitude 10° 18:16:06 10° 14° (NNE) 2,761 6.3 -13.4°
Sets 18:18:38 0° 12° (NNE) 3,708 7.1 -13.9°
